Location: Cerro Villa Heights
(33.8267°N, 117.8042°W)
Time: 13:00:41
(UTC+00:00)

Cosmos 2237 Rocket - Pass Details

Date: 05 August 2024
Orbit: 835 x 848 km, 71.0° (Epoch: 16 September)

Event Time Altitude Azimuth Distance (km) Brightness Sun altitude
Exits shadow 12:14:12 14° 238° (WSW) 2,199 3.7 -10.7°
Maximum altitude 12:18:27 33° 297° (WNW) 1,382 3.1 -9.9°
Drops below altitude 10° 12:23:30 10° 1° (N) 2,458 5.0 -9.0°
Sets 12:26:12 0° 11° (N) 3,394 5.9 -8.5°
